Location: *
(50.8667°S, 179.2667°W)
Time: 01:39:39
(UTC+00:00)

Cosmos 2208 Rocket - Pass Details

Date: 02 October 2023
Orbit: 753 x 804 km, 74.0° (Epoch: 01 December)

Event Time Altitude Azimuth Distance (km) Brightness Sun altitude
Exits shadow 14:00:24 64° 203° (SSW) 880 4.3 -28.5°
Drops below altitude 10° 14:05:10 10° 159° (SSE) 2,354 7.4 -28.0°
Sets 14:07:34 0° 156° (SSE) 3,280 8.4 -27.7°
